EDT,Max TemperatureF,Mean TemperatureF,Min TemperatureF,Max Dew PointF,MeanDew PointF,Min DewpointF,Max Humidity, Mean Humidity, Min Humidity, Max Sea Level PressureIn, Mean Sea Level PressureIn, Min Sea Level PressureIn, Max VisibilityMiles, Mean VisibilityMiles, Min VisibilityMiles, Max Wind SpeedMPH, Mean Wind SpeedMPH, Max Gust SpeedMPH,PrecipitationIn, CloudCover, Events, WindDirDegrees
2013-10-1,80,64,47,60,53,46,95,75,41,30.13,30.07,30.02,10,10,7,5,0,,0.00,0,,160
2013-10-2,84,70,55,61,57,54,96,73,35,30.12,30.08,30.04,10,9,2,5,0,,0.00,0,,312
2013-10-3,84,70,55,64,59,54,96,76,42,30.14,30.11,30.07,10,8,0,5,0,,0.00,1,Fog,183
2013-10-4,86,75,64,66,63,59,94,74,39,30.13,30.09,30.05,10,9,3,5,1,,0.00,1,,188
2013-10-5,88,74,60,66,63,60,96,71,38,30.11,30.08,30.03,10,9,0,6,0,,0.00,1,Fog,184
2013-10-6,84,72,60,69,64,59,97,77,46,30.09,30.04,29.98,10,8,0,12,3,,0.00,3,Fog,162
2013-10-7,82,74,67,70,68,65,95,86,56,29.99,29.92,29.86,10,9,2,18,4,25,0.74,4,Rain,172
2013-10-8,67,62,56,66,52,49,92,77,65,30.19,30.14,29.99,10,10,7,18,10,24,0.04,8,Rain,6
2013-10-9,61,58,55,59,56,54,94,92,89,30.18,30.09,30.01,10,9,2,18,10,26,1.09,7,,357
2013-10-10,61,59,57,59,57,55,95,93,89,30.00,29.92,29.88,10,7,3,15,11,23,0.04,8,,345
2013-10-11,63,60,57,61,58,56,95,92,86,29.95,29.91,29.86,10,7,2,9,4,,0.00,8,,333
2013-10-12,69,64,60,66,63,59,96,93,88,30.07,29.99,29.93,10,6,1,8,1,,0.15,8,,348
2013-10-13,73,68,63,69,64,62,96,92,81,30.21,30.13,30.07,10,6,0,13,7,18,0.14,8,,1
2013-10-14,68,62,56,62,59,54,94,85,65,30.24,30.20,30.16,10,9,4,14,8,20,0.00,6,,11
2013-10-15,67,60,54,61,58,52,95,90,81,30.19,30.12,30.05,10,9,3,10,6,17,0.00,5,,360
2013-10-16,70,66,61,64,61,60,96,87,72,30.05,30.01,29.96,10,8,2,7,3,,0.00,7,,360
2013-10-17,76,67,58,65,61,57,97,83,61,29.97,29.91,29.85,10,7,0,5,1,,0.00,3,,182
2013-10-18,68,63,58,64,57,52,94,80,65,30.04,29.98,29.87,10,10,7,7,1,,0.00,5,,54
2013-10-19,66,62,59,64,60,57,96,93,86,29.99,29.92,29.84,10,7,1,7,1,,0.00,6,,129
2013-10-20,63,52,42,60,45,36,95,72,38,30.14,30.04,29.89,10,10,7,15,2,21,0.00,0,,357
2013-10-21,65,50,35,52,43,35,97,80,45,30.18,30.11,30.03,10,10,3,7,1,,0.00,0,,122
2013-10-22,65,56,47,58,52,45,95,87,71,30.02,29.92,29.82,10,10,4,6,0,,0.00,2,,0
2013-10-23,63,56,48,57,49,37,96,81,50,29.96,29.76,29.68,10,7,1,9,1,,0.00,4,,307
2013-10-24,56,46,35,39,35,29,93,66,38,30.19,30.09,29.97,10,10,10,6,1,,0.00,2,,301
2013-10-25,54,43,32,36,31,25,97,67,32,30.35,30.28,30.18,10,10,10,9,1,,0.00,2,,339
2013-10-26,60,44,28,36,31,26,98,68,29,30.35,30.22,30.07,10,10,10,6,0,,0.00,0,,200
2013-10-27,66,52,38,44,38,34,96,67,32,30.16,30.09,30.04,10,10,5,5,1,,0.00,1,,328
2013-10-28,67,52,38,53,46,37,97,82,53,30.27,30.22,30.15,10,8,1,4,0,,0.00,1,,182
2013-10-29,70,58,47,52,49,45,96,72,49,30.35,30.30,30.26,10,9,2,6,1,,0.00,2,,65
2013-10-30,71,58,46,58,52,44,96,81,58,30.33,30.26,30.18,10,8,1,6,1,,0.00,3,,0
2013-10-31,74,62,51,63,58,50,97,82,57,30.22,30.11,29.96,10,6,0,12,3,17,0.00,1,,176